Location: Bern�tre
(50.1974°N, 2.0915°E)
Time: 06:02:23
(UTC+00:00)

Spot 2 Rocket - Pass Details

Date: 18 September 2020
Orbit: 758 x 772 km, 98.6° (Epoch: 22 October)

Event Time Altitude Azimuth Distance (km) Brightness Sun altitude
Exits shadow 21:28:19 48° 279° (W) 996 4.2 -30.6°
Drops below altitude 10° 21:32:45 10° 336° (NNW) 2,299 6.8 -31.1°
Sets 21:35:08 0° 342° (NNW) 3,230 7.7 -31.3°
